Weather History for KFLG - May, 2013

Change the Weather History Date:

Wednesday, May 8, 2013

  Actual Average Record
Temperature  
Mean Temperature 43 °F 50 °F  
Max Temperature 57 °F 65 °F 85 °F (1989)
Min Temperature 28 °F 34 °F 17 °F (1965)
Degree Days  
Heating Degree Days 22 15  
Month to date heating degree days 144 131  
Since 1 July heating degree days 6387 6487  
Cooling Degree Days 0 0  
Month to date cooling degree days 0 0  
Year to date cooling degree days 0 0  
Moisture  
Dew Point 29 °F    
Average Humidity 61    
Maximum Humidity 92    
Minimum Humidity 30    
Precipitation  
Precipitation 0.00 in 0.02 in 0.77 in (1976)
Month to date precipitation 0.20 0.18  
Year to date precipitation 5.20 7.66  
Snow  
Snow 0.00 in 0.10 in 4.70 in (1979)
Month to date snowfall 0.0 0.5  
Since 1 July snowfall 69.7 101.5  
Snow Depth 0.00 in    
Sea Level Pressure  
Sea Level Pressure 30.00 in    
Wind  
Wind Speed 4 mph (SW)    
Max Wind Speed 16 mph    
Max Gust Speed 23 mph    
Visibility 10 miles    
Events      
T = Trace of Precipitation, MM = Missing Value Source: NWS Daily Summary

Daily Weather History Graph

Daily Weather History Graph

Search for Another Location

Airport or City:

Trip Planner

Search our weather history database for the weather conditions in past years. The results will help you decide how hot, cold, wet, or windy it might be!

Date:

Astronomy

May. 08, 2013 Rise Set
Actual Time 5:28 AM MST 7:18 PM MST
Civil Twilight 5:00 AM MST 7:46 PM MST
Nautical Twilight 4:27 AM MST 8:19 PM MST
Astronomical Twilight 3:51 AM MST 8:55 PM MST
Moon 4:35 AM MST (5/8) 6:21 PM MST (5/8)
Length of Visible Light 14h 45m
Length of Day
13h 50m
Waning Crescent, 1% of the Moon is Illuminated
May 8
Waning Crescent
May 9
New
May 17
First Quarter
May 24
Full
May 31
Last Quarter

Hourly Weather History & Observations

Time (MST) Temp. Windchill Dew Point Humidity Pressure Visibility Wind Dir Wind Speed Gust Speed Precip Events Conditions
12:57 AM 34.0 °F 28.8 °F 30.0 °F 85% 29.92 in 10.0 mi West 5.8 mph - N/A   Clear
1:57 AM 32.0 °F 28.7 °F 30.0 °F 92% 29.93 in 10.0 mi SW 3.5 mph - N/A   Clear
2:57 AM 30.0 °F - 28.0 °F 92% 29.94 in 10.0 mi Calm Calm - N/A   Clear
3:57 AM 30.0 °F - 27.0 °F 88% 29.97 in 10.0 mi Calm Calm - N/A   Clear
4:57 AM 28.9 °F - 27.0 °F 92% 29.98 in 10.0 mi Calm Calm - N/A   Clear
5:57 AM 28.9 °F - 27.0 °F 92% 30.01 in 10.0 mi Calm Calm - N/A   Clear
6:57 AM 36.0 °F - 33.1 °F 89% 30.00 in 10.0 mi Calm Calm - N/A   Clear
7:57 AM 39.9 °F - 33.1 °F 77% 30.02 in 10.0 mi Calm Calm - N/A   Clear
8:57 AM 44.1 °F 42.5 °F 30.9 °F 60% 30.04 in 10.0 mi Variable 3.5 mph - N/A   Mostly Cloudy
9:57 AM 46.9 °F - 28.0 °F 48% 30.03 in 10.0 mi WSW 6.9 mph - N/A   Scattered Clouds
10:57 AM 50.0 °F - 28.0 °F 43% 30.04 in 10.0 mi SW 5.8 mph - N/A   Mostly Cloudy
11:57 AM 50.0 °F - 28.9 °F 44% 30.03 in 10.0 mi Variable 3.5 mph - N/A   Overcast
12:57 PM 52.0 °F - 28.9 °F 41% 30.02 in 10.0 mi SW 8.1 mph - N/A   Overcast
1:57 PM 52.0 °F - 28.9 °F 41% 30.03 in 10.0 mi SSW 11.5 mph - N/A   Overcast
2:57 PM 52.0 °F - 27.0 °F 38% 30.01 in 10.0 mi Variable 6.9 mph - N/A   Overcast
3:57 PM 55.9 °F - 25.0 °F 30% 29.99 in 10.0 mi WSW 10.4 mph 23.0 mph N/A   Mostly Cloudy
4:57 PM 55.9 °F - 25.0 °F 30% 29.98 in 10.0 mi WSW 9.2 mph 16.1 mph N/A   Clear
5:57 PM 53.1 °F - 26.1 °F 35% 30.00 in 10.0 mi SSW 10.4 mph - N/A   Partly Cloudy
6:57 PM 50.0 °F - 28.0 °F 43% 29.99 in 10.0 mi SSW 5.8 mph - N/A   Clear
7:57 PM 48.9 °F - 28.9 °F 46% 29.99 in 10.0 mi WSW 3.5 mph - N/A   Overcast
8:57 PM 44.1 °F - 30.0 °F 58% 30.01 in 10.0 mi Calm Calm - N/A   Scattered Clouds
9:57 PM 43.0 °F - 30.0 °F 60% 30.01 in 10.0 mi Calm Calm - N/A   Partly Cloudy
10:57 PM 39.9 °F 36.7 °F 28.9 °F 65% 30.01 in 10.0 mi WSW 4.6 mph - N/A   Partly Cloudy
11:57 PM 41.0 °F - 30.0 °F 65% 30.00 in 10.0 mi Calm Calm - N/A   Mostly Cloudy